Starlink 30562

operational
NORAD ID: 58033 Int'l Des: 2023-156 Owner: SPXS Country: US Constellation: starlink
LEOCIRCULAR

Starlink 30562について

説明を読み込み中...

リアルタイム位置

3D地球を読み込み中...

次回通過

高度履歴

Altitude vs Time

uPlot chart will show altitude changes over time

軌道要素

1 58033U 23156F 25305.45597367 -.00003198 00000-0 -95903-4 0 9990
2 58033 53.1617 43.5283 0001103 91.0216 269.0912 15.30202756115404
Epoch: Nov 1, 2025 • Age: 26 hours

現在のステータス

高度 478.5 km
速度 7.63 km/s
衛星直下点 -11.62°S, 7.78°W
打ち上げ日 Oct 9, 2023
運用期間 2 years
タイプ internet

技術仕様

分類 Payload
質量 730.00 kg
乾燥質量 700.00 kg
総質量 730.00 kg
長さ 0.30 m
直径 4.10 m
スパン 29.00 m
形状 Box + pan
製造者 SPXS
バスタイプ Starlink V2M
フェーズステータス In Orbit
所有者/国 SPXS/US

大規模コンステレーション

Loading constellations...